[Iaude] MPEC U58: 2016 UA26 [a=1.76,e=0.48,i=11.8,H=23.6]

mpec at si.edu mpec at si.edu
Mon Oct 24 09:59:58 EDT 2016


M.P.E.C. 2016-U58                                Issued 2016 Oct. 24, 13:55 UT
 
     The Minor Planet Electronic Circulars contain information on unusual
         minor planets and routine data on comets.  They are published
    on behalf of Division F of the International Astronomical Union by the
          Minor Planet Center, Smithsonian Astrophysical Observatory,
                          Cambridge, MA 02138, U.S.A.

             Prepared using the Tamkin Foundation Computer Network

                              MPC at CFA.HARVARD.EDU
            URL http://www.minorplanetcenter.net/    ISSN 1523-6714


                                   2016 UA26
 
Observations:
     K16U26A* C2016 10 22.26023 23 53 24.48 +34 16 13.8          20.8 VqEU058G96
     K16U26A  C2016 10 22.26452 23 53 27.22 +34 15 40.8          20.4 VqEU058G96
     K16U26A  C2016 10 22.26879 23 53 29.95 +34 15 07.5          20.5 VqEU058G96
     K16U26A  C2016 10 22.27307 23 53 32.74 +34 14 33.7          20.4 VqEU058G96
     K16U26A  C2016 10 22.30358 23 53 52.30 +34 10 38.1          20.5 VqEU058G96
     K16U26A  C2016 10 22.30577 23 53 53.71 +34 10 20.3          20.9 VqEU058G96
     K16U26A  C2016 10 22.30705 23 53 54.56 +34 10 11.3          20.9 VqEU058G96
     K16U26A  C2016 10 22.30932 23 53 56.02 +34 09 53.7          20.7 VqEU058G96
     K16U26A  C2016 10 22.43836 23 55 19.58 +33 53 06.3          20.6 VqEU058I52
     K16U26A  C2016 10 22.43948 23 55 20.28 +33 52 57.8          20.6 VqEU058I52
     K16U26A  C2016 10 22.44073 23 55 21.10 +33 52 48.0          20.9 VqEU058I52
     K16U26A  C2016 10 22.44282 23 55 22.50 +33 52 31.7          20.9 VqEU058I52
     K16U26A KC2016 10 22.83477 23 59 41.45 +33 03 11.4                qEU058J95
     K16U26A KC2016 10 22.83919 23 59 44.22 +33 02 37.5                qEU058J95
     K16U26A KC2016 10 22.84563 23 59 48.08 +33 01 49.9          20.3 RqEU058J95
     K16U26A  C2016 10 23.26209 00 04 01.67 +32 10 37.1          20.3 VqEU058G96
     K16U26A  C2016 10 23.26417 00 04 02.86 +32 10 22.0          20.3 VqEU058G96
     K16U26A  C2016 10 23.26686 00 04 04.41 +32 10 01.7          20.9 VqEU058G96
     K16U26A  C2016 10 23.26905 00 04 05.64 +32 09 45.4          20.7 VqEU058G96
     K16U26A  C2016 10 24.32985 00 14 05.93 +30 02 31.2          20.6 VqEU058G96
     K16U26A  C2016 10 24.33152 00 14 06.78 +30 02 19.5          20.6 VqEU058G96
     K16U26A  C2016 10 24.33333 00 14 07.72 +30 02 06.3          20.5 VqEU058G96
 
Observer details:
G96 Mt. Lemmon Survey.  Observer R. G. Matheny.  Measurers E. J. Christensen,
    D. C. Fuls, A. R. Gibbs, A. D. Grauer, J. A. Johnson, R. A. Kowalski,
    S. M. Larson, G. J. Leonard, R. G. Matheny, R. L. Seaman, F. C. Shelly.
    1.5-m reflector + 10K CCD.
I52 Steward Observatory, Mt. Lemmon Station.  Observer A. R. Gibbs.  Measurers
    E. J. Christensen, D. C. Fuls, A. R. Gibbs, A. D. Grauer, J. A. Johnson,
    R. A. Kowalski, S. M. Larson, G. J. Leonard, R. G. Matheny, R. L. Seaman,
    F. C. Shelly.  1.0-m reflector + CCD.
J95 Great Shefford.  Observer P. Birtwhistle.  0.40-m f/6.0 Schmidt-Cassegrain
    + CCD.
 
Orbital elements:
2016 UA26                                                Earth MOID = 0.1010 AU
Epoch 2016 July 31.0 TT = JDT 2457600.5                 MPC
M 346.52142              (2000.0)            P               Q
n   0.42362970     Peri.  100.57952     +0.80073375     +0.58191610
a   1.7558138      Node   224.02482     -0.59768208     +0.76028082
e   0.4849704      Incl.   11.80042     -0.04001977     +0.28869835
P   2.33           H   23.6           G   0.15           U   8
Residuals in seconds of arc
161022 G96  0.3+  0.4+    161022 I52  0.2+  0.3-    161023 G96  0.1+  0.4+
161022 G96  0.1+  0.5+    161022 I52  0.2-  0.0     161023 G96  0.2+  0.0
161022 G96  0.1-  0.2+    161022 I52  0.2-  0.0     161023 G96  0.2-  0.0
161022 G96  0.4+  0.5-    161022 I52  0.2+  0.0     161024 G96  0.1+  0.0
161022 G96  0.2-  0.2+    161022 J95  0.3-  0.5+    161024 G96  0.0   0.2+
161022 G96  0.2-  0.6-    161022 J95  0.5+  0.5-    161024 G96  0.1+  0.1-
161022 G96  0.1+  0.3+    161022 J95  0.3-  0.3-
161022 G96  0.1+  0.4+    161023 G96  0.1+  0.0

Ephemeris:
2016 UA26                a,e,i = 1.76, 0.48, 12                  q = 0.9043
Date    TT    R. A. (2000) Decl.     Delta      r     Elong.  Phase     V
2016 09 24    16 10 29.3 +35 20 53   0.1765  0.9495    67.4   102.7    23.5
...
2016 10 09    19 15 57.0 +52 02 44   0.1102  1.0193    97.6    76.3    21.5
...
2016 10 17    22 32 58.6 +45 39 03   0.1070  1.0655   127.8    47.7    20.7
...
2016 10 23    00 01 22.5 +32 43 06   0.1263  1.1030   147.1    29.4    20.6
2016 10 24    00 11 08.4 +30 41 35   0.1310  1.1095   149.5    27.1    20.6
2016 10 25    00 19 54.2 +28 45 52   0.1361  1.1160   151.6    25.0    20.7
...
2016 10 31    00 57 32.2 +19 22 46   0.1729  1.1560   159.2    17.8    21.0
...
2016 11 08    01 25 53.8 +11 42 11   0.2341  1.2113   158.3    17.6    21.8
...
2016 11 23    01 55 07.1 +05 21 55   0.3746  1.3182   147.3    23.9    23.2

A. U. Tomatic                (C) Copyright 2016 MPC           M.P.E.C. 2016-U58




More information about the Iaude mailing list